Wetbulb
57.48 54.89 56.20 53.84 43.25 42.75 36.78 41.52 45.40 46.41 45.97 50.46 50.93 48.07 47.26 47.89 44.51 40.88 58.10 63.12 67.10 67.65 68.37 67.78 68.78 69.42 69.50 70.08 67.78 68.60 69.05 67.92 67.85 67.52 67.65 68.87 67.49 67.36 67.16 67.16 68.52 67.50 68.48 69.17 69.66 69.67 69.01 68.19 67.21
53.02 57.44 54.75 49.22 38.76 34.67 36.47 41.98 44.65 47.18 48.97 53.09 54.29 52.33 51.59 48.89 54.66 57.20 58.99 66.48 67.74 67.82 67.30 67.08 68.28 68.86 68.95 68.27 66.80 66.30 67.10 67.83 67.01 66.77 67.43 68.54 66.49 67.79 67.59 67.77 68.22 67.56 67.72 68.86 69.19 69.09 68.41 67.49 66.73
51.81 56.63 48.88 46.24 39.36 35.68 35.80 42.92 45.52 49.62 50.86 50.22 52.46 53.75 53.00 51.64 55.67 58.66 60.60 66.80 67.99 67.39 67.17 66.82 68.04 68.51 68.15 67.47 68.03 66.70 66.47 67.99 67.66 66.51 66.69 66.60 66.92 67.40 68.13 67.95 67.90 67.35 67.64 68.37 68.93 69.04 67.85 66.85 66.19
53.82 51.25 47.03 41.71 38.98 40.99 40.57 45.09 46.00 46.48 49.92 52.92 52.80 51.09 53.26 55.51 57.91 59.70 65.89 67.26 67.31 67.13 67.21 67.17 68.24 68.33 67.36 66.73 67.29 67.33 66.88 68.38 67.06 66.87 66.85 67.27 67.21 67.78 68.03 68.21 67.62 66.56 66.79 67.92 68.42 68.34 67.63 66.25 65.84
50.39 45.68 37.16 35.80 40.84 45.61 44.83 46.98 47.10 46.69 46.15 49.90 51.80 50.44 51.05 55.91 60.41 64.32 66.04 67.40 66.25 66.56 66.17 66.47 67.64 67.61 66.85 66.83 67.49 67.08 67.74 68.28 68.24 67.81 67.56 67.63 67.98 67.80 67.85 68.19 67.97 67.77 68.07 67.46 67.81 68.02 67.30 66.30 65.48
45.52 43.35 32.60 29.33 37.08 43.89 45.41 47.09 45.62 44.71 45.47 50.27 51.28 51.33 50.99 58.79 61.41 64.71 66.12 66.47 66.72 65.36 65.78 65.93 64.92 66.30 66.48 66.21 67.00 66.40 68.81 68.74 68.69 68.49 68.16 67.71 67.66 67.89 67.75 67.40 67.23 67.28 67.15 67.01 66.67 67.52 67.00 66.39 65.16
43.41 39.33 34.20 31.15 36.54 39.16 43.58 44.34 44.03 45.34 44.02 47.85 54.51 49.98 50.71 55.30 61.92 65.00 65.59 66.53 66.43 65.83 64.82 64.86 65.01 64.79 64.11 64.54 64.32 66.38 67.47 67.82 68.12 68.49 67.92 67.63 67.64 67.57 67.39 67.21 67.12 66.86 67.04 66.73 66.81 67.25 66.95 66.40 64.98
44.82 40.86 33.54 33.71 36.85 38.86 42.09 43.36 43.73 43.92 44.45 54.21 55.04 49.61 49.61 54.67 63.40 64.80 65.35 65.96 65.99 65.73 64.56 64.49 64.40 64.41 64.45 63.11 62.86 63.42 65.27 66.33 66.74 66.35 65.33 64.81 65.23 65.71 65.54 64.64 66.06 66.05 66.48 65.90 66.78 66.78 66.69 66.10 64.36
44.88 37.73 33.56 35.99 38.06 38.98 44.25 42.34 45.51 46.28 47.83 52.80 54.35 52.88 55.14 60.12 63.67 63.88 63.76 64.33 65.04 65.39 64.78 64.94 64.23 63.80 63.52 62.36 60.93 61.32 63.22 63.81 63.66 62.85 61.90 61.64 62.28 62.98 63.64 62.98 64.79 66.10 65.77 65.84 66.12 66.37 65.82 64.59 63.35
42.65 36.38 37.44 41.77 41.80 41.11 44.08 44.12 43.90 44.34 46.39 50.06 51.42 54.49 56.68 61.55 61.57 61.19 61.14 61.45 63.05 64.01 64.55 64.76 64.24 62.93 62.99 62.78 61.46 62.41 61.59 61.63 61.55 61.45 61.10 61.07 61.21 61.61 61.98 60.41 61.91 63.47 63.16 65.15 65.40 64.25 62.45 60.33 59.73
42.42 37.80 40.17 40.98 42.67 44.60 44.75 44.63 45.57 42.97 43.54 45.12 47.34 52.47 54.13 59.36 60.05 60.45 60.66 61.52 61.99 64.10 64.69 64.61 64.35 63.24 62.41 61.07 61.21 61.82 60.45 59.95 59.91 60.03 59.94 60.17 60.24 59.67 60.82 61.69 59.16 58.12 57.07 56.67 58.28 57.64 57.17 56.81 56.63
34.84 38.38 37.80 40.61 39.99 41.92 44.92 46.91 44.14 46.11 44.77 48.98 51.94 54.49 54.32 56.71 58.76 59.68 60.04 60.97 61.85 63.03 64.29 64.39 64.59 63.86 63.14 61.24 60.65 61.01 60.32 59.32 58.82 58.91 59.16 60.05 60.59 57.90 58.43 59.60 57.65 56.64 55.04 53.50 54.10 54.85 55.24 55.27 55.29
35.44 36.19 38.34 38.67 38.33 40.10 44.42 44.77 44.37 45.10 48.27 52.71 54.47 55.03 54.55 54.89 55.24 59.21 61.62 61.54 62.75 62.43 63.51 63.90 64.31 64.02 63.32 61.66 61.10 60.55 60.05 59.70 59.26 58.51 58.65 60.91 61.11 57.38 57.01 57.32 57.07 55.60 54.32 53.44 52.55 53.12 53.38 53.39 53.58
35.45 35.86 35.20 36.16 36.63 37.55 39.07 43.15 44.60 45.48 47.42 48.12 53.53 53.28 53.26 54.30 54.58 55.70 59.31 61.31 61.34 62.56 62.98 64.09 63.65 64.08 63.39 62.35 62.09 61.48 60.78 59.99 59.79 58.67 58.92 59.33 60.92 59.62 57.12 56.50 56.00 54.93 54.32 53.59 52.37 51.86 51.57 52.11 52.44
35.39 30.58 32.62 35.18 35.54 36.52 38.78 38.36 40.61 38.34 42.68 44.07 45.70 46.32 49.64 52.56 54.99 56.11 57.72 60.31 62.31 62.29 62.97 63.39 63.61 63.93 62.51 62.14 62.05 62.04 61.00 60.32 59.68 59.20 58.88 59.34 60.61 59.26 57.07 55.88 55.08 54.98 54.74 53.85 52.36 51.20 50.34 50.16 50.78
31.87 29.41 25.88 32.84 36.00 37.12 38.17 31.65 38.06 39.93 38.13 38.91 40.99 41.89 43.54 45.94 47.57 53.40 57.40 58.43 61.02 62.39 62.89 63.32 64.06 63.33 62.62 62.34 62.29 62.11 61.72 60.90 60.06 59.42 59.19 59.27 59.62 58.73 56.89 55.93 55.17 55.21 55.08 54.06 52.03 50.56 49.25 48.48 48.51
29.91 25.21 27.29 30.37 35.74 34.93 33.53 29.23 37.09 38.46 37.58 37.22 39.03 39.88 40.77 41.03 42.71 44.02 46.63 56.60 58.68 61.69 62.68 63.14 63.64 62.98 62.53 62.42 62.49 62.57 61.88 60.83 60.33 58.87 58.85 59.24 59.38 59.00 57.77 56.81 55.67 55.48 54.83 54.08 52.76 50.00 49.01 47.85 47.13
26.51 25.12 27.02 25.57 32.34 34.05 31.81 31.07 34.03 36.51 35.07 33.71 36.03 38.56 40.07 41.09 42.22 44.71 45.47 48.96 56.66 58.41 60.70 62.42 63.61 63.45 62.69 62.62 62.69 62.55 62.03 61.09 60.96 59.16 58.68 59.18 59.48 59.19 58.09 56.93 56.14 56.50 54.68 54.12 54.53 52.01 49.95 49.34 48.86
27.92 25.59 24.63 28.25 33.25 31.48 30.24 30.05 32.21 34.92 34.83 34.23 35.14 36.51 37.90 39.66 42.06 43.68 44.97 46.43 48.43 53.49 57.65 59.27 61.68 63.33 62.14 61.54 61.22 61.13 60.46 60.80 60.72 60.22 58.94 58.97 59.54 59.24 58.39 57.67 56.88 57.18 56.83 56.13 54.70 52.05 49.27 46.65 44.52
29.43 27.02 25.66 29.39 32.93 30.96 29.33 29.35 31.76 33.76 33.88 34.46 34.21 34.56 35.76 37.63 39.29 40.95 42.50 44.10 45.02 45.93 47.86 52.21 59.56 61.87 61.66 61.73 62.17 62.27 61.48 61.46 61.59 60.79 59.23 59.22 59.20 59.13 58.64 58.05 57.22 57.17 57.07 56.47 54.26 51.39 48.88 47.63 45.49
29.43 27.32 26.49 27.31 30.61 29.82 27.26 25.43 28.20 31.64 34.48 35.37 35.39 35.13 35.43 35.68 36.68 38.20 39.73 41.81 42.32 43.02 44.25 46.70 49.80 59.33 60.97 61.30 62.24 61.42 61.69 60.33 59.94 59.63 58.87 58.52 58.95 59.39 59.13 58.50 58.36 57.43 57.44 56.51 54.68 52.54 50.41 47.88 45.89
27.89 31.57 30.62 29.79 26.37 22.17 26.51 17.13 25.38 29.88 31.03 33.11 33.34 33.28 33.62 34.62 36.24 37.26 37.99 39.20 40.50 41.89 43.31 44.57 46.59 49.84 59.83 60.82 60.59 60.70 59.81 58.13 58.98 59.83 59.84 59.17 58.25 58.58 59.11 58.97 58.95 58.17 57.80 56.43 55.01 53.76 52.76 50.36 46.91
29.80 32.91 30.39 29.91 26.83 22.89 24.63 17.40 21.39 28.68 28.20 30.61 32.13 32.86 33.52 34.63 35.12 35.44 36.63 38.52 39.44 40.80 41.44 42.26 44.08 45.80 49.84 59.00 60.28 60.10 59.46 59.85 59.90 59.99 59.19 59.16 57.97 58.22 58.42 59.09 59.02 58.39 57.95 57.03 55.59 53.52 52.15 51.87 50.34
34.07 29.24 26.51 25.67 23.26 10.62 23.38 19.47 19.55 27.41 29.71 30.09 32.02 32.32 34.01 33.88 34.31 34.77 35.96 37.46 38.25 39.51 39.83 40.63 41.93 43.08 46.68 49.66 56.37 59.07 58.39 57.62 57.69 58.34 58.00 57.52 57.72 57.83 57.91 58.12 58.40 58.49 57.94 57.27 56.12 55.01 53.10 51.95 52.42
30.13 20.54 8.31 10.43 9.45 10.27 23.26 20.63 24.12 28.92 29.80 30.53 30.55 31.91 32.65 33.10 33.81 33.96 34.29 35.32 35.60 36.10 38.07 39.32 40.50 41.42 44.45 47.00 49.29 54.64 58.36 57.80 57.04 57.20 57.61 56.97 57.28 57.71 57.65 57.41 57.73 58.01 58.20 57.93 57.16 56.16 54.60 53.27 51.35
28.59 27.31 13.18 7.62 12.07 13.93 23.98 19.86 25.14 30.94 31.92 31.88 31.83 32.21 33.03 33.63 34.38 34.97 34.97 34.83 34.64 35.15 36.26 37.64 39.55 40.86 43.43 45.09 47.05 49.87 55.32 58.91 58.12 58.00 58.17 58.10 58.06 58.30 58.92 58.27 58.16 58.34 58.46 58.28 57.84 56.91 56.21 55.00 53.49
25.44 20.74 31.94 18.49 18.63 17.07 19.00 23.80 30.15 30.07 29.49 31.18 31.12 32.37 32.82 33.41 34.58 34.99 34.95 35.18 34.95 35.02 35.90 38.09 39.65 40.52 42.06 43.27 45.94 48.05 50.30 58.49 59.09 58.60 57.99 58.20 58.09 58.30 58.32 58.34 58.14 58.35 58.30 58.04 58.13 57.42 56.70 56.01 54.52
29.67 32.65 17.67 16.84 8.25 8.42 15.33 18.00 21.36 26.93 28.33 30.20 30.49 31.52 32.92 34.00 34.29 34.54 35.02 34.86 35.43 35.49 36.09 37.66 38.78 39.01 40.33 42.79 45.23 47.87 50.00 53.90 59.58 59.71 59.14 58.69 58.80 59.00 58.91 58.70 58.54 58.60 58.37 58.30 57.82 57.68 57.54 56.55 55.58
28.43 21.21 27.21 27.89 24.56 14.88 13.12 15.77 28.01 28.33 29.81 29.79 30.73 31.82 32.45 33.16 33.47 34.01 34.34 34.53 34.94 34.99 35.13 35.72 36.93 37.56 39.03 41.14 44.01 47.42 50.82 54.35 58.40 59.28 59.30 59.43 59.19 58.91 58.22 58.57 58.11 57.44 57.31 57.72 57.58 57.41 57.48 56.34 56.19
32.10 27.51 27.82 16.11 13.00 19.08 19.12 17.86 31.43 31.24 31.32 31.70 31.05 32.17 32.19 31.94 32.30 32.65 33.83 33.49 33.32 33.54 33.83 34.07 34.89 35.97 37.94 40.11 42.62 43.96 48.83 52.37 52.56 53.48 52.03 53.51 53.71 55.86 58.05 58.41 58.31 58.32 57.58 57.59 57.26 56.89 56.95 56.62 56.20
MSLP
1014.74 1014.21 1013.99 1014.20 1015.69 1016.12 1015.72 1014.80 1013.71 1012.85 1012.30 1011.86 1011.87 1012.48 1012.82 1013.53 1014.15 1015.28 1014.40 1014.36 1014.54 1015.05 1015.53 1016.24 1016.80 1017.16 1017.57 1018.06 1018.21 1018.61 1018.99 1019.21 1019.39 1019.65 1019.79 1019.92 1020.15 1020.27 1020.46 1020.70 1020.91 1021.03 1021.13 1021.30 1021.41 1021.59 1021.90 1022.23 1022.63
1015.05 1014.25 1014.40 1015.51 1016.34 1016.76 1015.81 1014.57 1013.56 1012.42 1011.91 1011.95 1011.98 1012.54 1013.18 1013.89 1014.12 1014.67 1014.79 1014.48 1014.60 1015.29 1015.85 1016.39 1016.86 1017.34 1017.69 1018.09 1018.56 1018.87 1019.24 1019.47 1019.70 1019.88 1020.04 1020.15 1020.44 1020.59 1020.68 1020.95 1021.07 1021.30 1021.60 1021.63 1021.83 1022.07 1022.40 1022.75 1023.15
1014.92 1014.92 1015.59 1016.37 1016.59 1016.02 1015.63 1014.11 1013.04 1012.15 1011.65 1011.71 1012.33 1012.93 1013.43 1014.12 1014.55 1014.62 1014.55 1014.65 1014.65 1015.54 1016.20 1016.70 1017.11 1017.52 1017.89 1018.37 1018.80 1019.11 1019.53 1019.71 1019.91 1020.14 1020.28 1020.43 1020.59 1020.76 1020.99 1021.13 1021.27 1021.43 1021.83 1021.98 1022.12 1022.42 1022.81 1023.19 1023.58
1015.18 1015.46 1016.69 1016.65 1016.34 1015.91 1015.02 1013.73 1013.07 1012.33 1011.84 1011.70 1012.21 1013.31 1013.86 1014.10 1014.28 1014.44 1014.61 1014.76 1015.28 1015.74 1016.47 1017.04 1017.29 1017.75 1018.20 1018.52 1019.00 1019.27 1019.76 1019.93 1020.13 1020.39 1020.57 1020.74 1020.80 1021.01 1021.20 1021.37 1021.52 1021.67 1022.05 1022.32 1022.52 1022.86 1023.12 1023.55 1023.91
1015.72 1016.62 1017.32 1017.21 1016.28 1015.49 1014.88 1014.00 1013.35 1012.84 1012.40 1012.26 1012.32 1013.34 1014.09 1014.38 1014.39 1014.50 1014.72 1015.06 1015.58 1016.18 1016.73 1017.38 1017.57 1018.04 1018.42 1018.86 1019.19 1019.41 1019.73 1020.09 1020.34 1020.54 1020.79 1020.92 1021.06 1021.23 1021.47 1021.69 1021.82 1022.05 1022.18 1022.67 1022.90 1023.15 1023.40 1023.86 1024.23
1016.57 1017.21 1017.92 1017.54 1016.54 1015.44 1014.72 1013.83 1013.64 1013.03 1012.78 1012.63 1013.00 1013.41 1014.40 1014.61 1014.80 1014.78 1014.98 1015.33 1015.70 1016.49 1016.93 1017.41 1017.91 1018.36 1018.71 1019.13 1019.38 1019.64 1019.83 1020.09 1020.49 1020.71 1020.90 1021.21 1021.36 1021.49 1021.71 1021.95 1022.17 1022.45 1022.63 1022.89 1023.09 1023.43 1023.71 1024.11 1024.54
1016.89 1017.55 1017.71 1017.38 1016.47 1015.23 1014.52 1013.92 1013.52 1013.12 1012.83 1012.60 1012.70 1013.78 1014.64 1014.78 1014.65 1015.04 1015.17 1015.63 1015.94 1016.74 1017.28 1017.46 1018.11 1018.59 1018.85 1019.27 1019.53 1019.71 1020.11 1020.31 1020.59 1020.95 1021.16 1021.45 1021.65 1021.83 1021.99 1022.24 1022.46 1022.65 1022.95 1023.20 1023.35 1023.58 1023.96 1024.32 1024.88
1017.05 1017.61 1017.83 1017.11 1016.22 1015.24 1014.59 1014.13 1013.42 1013.28 1012.88 1012.70 1012.83 1013.67 1014.31 1014.29 1014.56 1015.07 1015.58 1016.09 1016.48 1017.04 1017.56 1017.68 1018.30 1018.71 1019.05 1019.40 1019.67 1019.88 1020.23 1020.68 1020.77 1021.17 1021.53 1021.83 1022.06 1022.25 1022.39 1022.59 1022.76 1022.95 1023.24 1023.59 1023.77 1023.95 1024.20 1024.52 1025.04
1017.33 1017.89 1018.10 1017.16 1016.41 1015.61 1014.90 1014.66 1013.70 1013.39 1013.38 1013.38 1013.59 1013.86 1013.72 1014.20 1014.64 1015.18 1015.86 1016.42 1016.87 1017.33 1017.79 1017.96 1018.32 1018.87 1019.24 1019.67 1019.85 1020.15 1020.31 1020.89 1021.13 1021.54 1021.93 1022.15 1022.49 1022.72 1022.82 1023.06 1023.23 1023.37 1023.65 1023.89 1024.07 1024.31 1024.56 1024.96 1025.38
1018.11 1018.61 1018.13 1017.58 1016.82 1016.43 1015.62 1015.11 1014.65 1013.98 1013.84 1014.23 1014.33 1014.58 1014.49 1014.51 1014.82 1014.66 1016.00 1016.64 1017.08 1017.35 1017.76 1018.01 1018.46 1018.98 1019.29 1019.69 1020.03 1020.26 1020.69 1021.10 1021.43 1021.78 1022.14 1022.50 1022.71 1023.03 1023.26 1023.49 1023.68 1023.87 1024.12 1024.23 1024.34 1024.69 1025.06 1025.42 1025.76
1018.56 1018.77 1018.53 1018.12 1017.44 1016.66 1015.94 1015.51 1015.09 1014.82 1014.76 1015.06 1015.20 1015.24 1015.23 1015.23 1015.35 1015.56 1015.54 1016.54 1017.14 1017.22 1017.68 1018.12 1018.39 1018.99 1019.30 1019.67 1020.22 1020.44 1020.96 1021.32 1021.71 1021.92 1022.22 1022.63 1023.01 1023.24 1023.48 1023.77 1024.11 1024.31 1024.52 1024.77 1024.93 1025.20 1025.50 1025.81 1026.08
1019.05 1018.97 1018.77 1018.39 1017.96 1017.31 1016.63 1016.03 1015.77 1015.53 1015.95 1015.39 1014.93 1015.33 1015.54 1015.63 1015.81 1016.05 1016.00 1016.13 1017.05 1017.42 1017.55 1018.02 1018.30 1018.77 1019.30 1019.79 1020.27 1020.51 1021.01 1021.42 1021.86 1022.14 1022.35 1022.65 1023.09 1023.46 1023.64 1023.94 1024.30 1024.60 1024.88 1025.15 1025.34 1025.62 1025.86 1026.14 1026.37
1019.63 1019.62 1019.10 1018.62 1018.04 1017.64 1016.90 1016.63 1016.29 1016.18 1015.89 1015.41 1015.44 1015.84 1016.25 1016.35 1016.36 1016.37 1016.53 1016.75 1016.66 1017.27 1017.63 1017.98 1018.20 1018.54 1019.02 1019.76 1020.24 1020.53 1020.96 1021.37 1021.64 1022.15 1022.50 1022.71 1022.93 1023.53 1023.81 1024.10 1024.38 1024.76 1025.07 1025.28 1025.60 1025.86 1026.13 1026.43 1026.64
1020.38 1020.02 1019.59 1019.05 1018.46 1018.15 1017.71 1017.15 1016.67 1016.88 1016.42 1016.02 1016.24 1016.63 1016.93 1016.81 1016.92 1016.97 1016.87 1016.88 1016.88 1017.29 1017.57 1017.94 1018.18 1018.37 1018.79 1019.30 1019.91 1020.36 1020.75 1021.09 1021.47 1021.97 1022.35 1022.68 1022.92 1023.49 1023.86 1024.26 1024.59 1024.88 1025.13 1025.44 1025.71 1025.97 1026.25 1026.48 1026.70
1020.55 1020.42 1019.92 1019.73 1019.00 1018.67 1018.23 1018.10 1018.08 1018.11 1017.22 1017.11 1017.04 1017.13 1017.16 1016.93 1016.99 1017.09 1016.99 1016.92 1016.85 1017.27 1017.40 1017.78 1017.97 1018.15 1018.61 1019.03 1019.51 1019.88 1020.43 1020.89 1021.30 1021.57 1022.07 1022.49 1022.87 1023.24 1023.70 1024.18 1024.63 1024.89 1025.25 1025.64 1025.99 1026.31 1026.57 1026.79 1026.91
1021.12 1021.08 1020.96 1020.71 1019.93 1019.33 1018.84 1019.35 1019.03 1018.69 1018.24 1018.03 1017.83 1017.53 1017.29 1017.24 1017.18 1017.19 1017.09 1016.83 1016.87 1016.87 1017.16 1017.43 1017.67 1017.94 1018.21 1018.65 1019.18 1019.55 1019.93 1020.45 1020.85 1021.17 1021.69 1022.06 1022.54 1023.05 1023.48 1023.97 1024.35 1024.70 1025.13 1025.56 1026.02 1026.38 1026.81 1027.16 1027.29
1022.43 1022.51 1022.36 1021.59 1020.97 1020.75 1020.00 1020.34 1020.16 1019.74 1019.13 1018.97 1018.75 1018.55 1018.32 1018.27 1018.09 1017.84 1017.48 1017.12 1016.68 1016.65 1016.81 1017.05 1017.46 1017.63 1017.89 1018.11 1018.55 1019.01 1019.33 1019.71 1020.16 1020.67 1021.23 1021.65 1022.05 1022.45 1023.06 1023.64 1024.16 1024.59 1025.10 1025.48 1025.82 1026.42 1026.69 1027.10 1027.46
1024.07 1023.75 1023.14 1022.63 1022.08 1021.48 1021.35 1021.70 1021.73 1021.08 1020.33 1020.62 1020.47 1020.31 1020.12 1019.90 1019.84 1019.25 1018.37 1017.55 1016.87 1016.77 1016.78 1016.66 1016.76 1017.26 1017.79 1017.81 1017.90 1018.39 1018.70 1018.99 1019.54 1020.13 1020.68 1021.16 1021.61 1022.00 1022.54 1023.17 1023.79 1024.35 1024.92 1025.32 1025.50 1025.98 1026.59 1027.02 1027.30
1023.85 1023.99 1023.75 1023.03 1022.46 1022.33 1022.61 1022.59 1022.71 1022.70 1021.93 1022.17 1022.28 1022.02 1021.70 1021.30 1021.08 1020.32 1019.46 1018.83 1018.30 1017.78 1017.41 1017.32 1016.67 1016.70 1017.23 1017.28 1017.57 1017.88 1017.66 1018.22 1018.86 1019.32 1019.93 1020.50 1020.97 1021.45 1022.02 1022.59 1023.15 1023.63 1024.14 1024.53 1024.94 1025.68 1026.31 1027.00 1027.43
1024.02 1024.08 1024.13 1023.49 1022.93 1022.83 1023.19 1023.23 1023.33 1023.37 1023.77 1023.86 1023.84 1023.49 1023.08 1022.24 1021.36 1021.03 1020.59 1019.97 1019.68 1019.41 1018.82 1018.00 1017.36 1017.18 1016.66 1016.70 1016.95 1017.15 1016.82 1017.92 1018.15 1018.53 1019.03 1019.59 1020.30 1021.01 1021.28 1021.74 1022.38 1022.95 1023.56 1023.99 1024.45 1024.92 1025.84 1026.51 1027.10
1024.49 1024.47 1024.55 1024.57 1023.72 1023.48 1023.56 1023.67 1023.73 1023.85 1024.14 1024.38 1024.51 1024.72 1024.26 1023.64 1022.85 1022.10 1021.57 1021.04 1020.73 1020.31 1019.77 1019.09 1018.30 1017.32 1016.94 1016.57 1016.61 1017.01 1017.24 1017.41 1016.74 1018.60 1018.99 1019.30 1019.91 1020.41 1020.53 1020.87 1021.31 1022.05 1022.52 1023.17 1023.66 1024.27 1024.74 1025.68 1026.48
1024.61 1024.54 1024.73 1024.75 1024.75 1024.55 1024.40 1024.75 1024.41 1024.53 1024.49 1024.69 1024.95 1024.95 1024.84 1024.27 1023.71 1023.20 1022.44 1021.77 1021.41 1021.06 1020.60 1019.90 1019.06 1018.17 1017.08 1016.77 1016.79 1016.73 1016.90 1017.51 1016.50 1017.24 1018.13 1019.00 1019.30 1019.66 1019.95 1020.11 1020.42 1020.97 1021.61 1022.23 1022.73 1022.99 1023.85 1024.56 1025.51
1025.08 1024.91 1025.03 1025.13 1025.39 1025.55 1025.40 1025.49 1025.30 1025.26 1025.15 1025.24 1025.50 1025.57 1025.40 1025.00 1024.40 1023.80 1023.31 1022.68 1022.11 1021.53 1021.03 1020.60 1019.75 1018.82 1017.86 1016.94 1016.51 1016.50 1016.68 1016.80 1017.16 1017.44 1017.51 1018.20 1018.34 1018.96 1019.59 1019.57 1019.67 1020.12 1020.64 1021.15 1021.83 1022.47 1022.89 1023.29 1023.99
1025.40 1025.34 1025.70 1026.13 1026.31 1026.62 1026.47 1026.39 1026.23 1026.33 1026.58 1026.28 1026.21 1026.05 1025.67 1025.24 1024.80 1024.39 1023.91 1023.30 1022.64 1021.97 1021.39 1020.85 1020.13 1019.49 1018.55 1017.72 1016.80 1016.21 1016.25 1016.58 1016.96 1017.19 1017.58 1018.06 1017.68 1018.11 1018.84 1019.32 1019.57 1019.37 1019.72 1020.29 1020.76 1021.28 1021.97 1022.30 1022.61
1025.95 1026.51 1027.07 1027.67 1027.66 1027.78 1026.86 1026.62 1026.55 1026.63 1026.80 1026.92 1026.53 1026.11 1025.99 1025.65 1025.06 1024.47 1023.97 1023.50 1023.07 1022.48 1021.84 1021.25 1020.50 1019.66 1019.01 1018.19 1017.37 1016.66 1016.05 1016.18 1016.42 1016.62 1016.94 1017.35 1017.72 1018.03 1017.99 1018.16 1018.84 1019.04 1019.06 1019.43 1019.86 1020.43 1020.91 1021.37 1021.98
1026.98 1027.37 1028.01 1028.74 1028.98 1028.21 1027.11 1026.99 1026.53 1026.56 1026.81 1026.77 1026.69 1026.45 1026.16 1025.79 1025.45 1024.94 1024.46 1024.04 1023.59 1022.99 1022.33 1021.57 1020.69 1019.88 1019.15 1018.51 1017.75 1017.00 1016.28 1015.83 1015.90 1016.08 1016.20 1016.58 1016.86 1017.00 1017.17 1017.72 1017.97 1018.59 1018.74 1018.82 1019.11 1019.54 1019.92 1020.38 1020.82
1027.32 1027.70 1028.03 1028.63 1029.41 1028.95 1027.72 1027.18 1026.89 1026.62 1026.71 1026.49 1026.36 1026.12 1025.99 1025.87 1025.56 1025.30 1024.90 1024.28 1023.73 1023.20 1022.58 1021.77 1020.90 1020.06 1019.40 1018.65 1017.86 1017.15 1016.47 1015.55 1015.33 1015.47 1015.78 1016.02 1016.22 1016.55 1016.95 1017.08 1017.45 1017.56 1017.82 1018.15 1018.24 1018.75 1018.96 1019.12 1019.60
1027.57 1027.89 1028.01 1028.71 1029.49 1029.13 1028.12 1027.57 1026.94 1026.84 1026.87 1026.85 1026.68 1026.59 1026.48 1026.34 1026.10 1025.72 1025.23 1024.56 1024.00 1023.39 1022.75 1021.94 1021.16 1020.39 1019.52 1018.74 1017.89 1017.02 1016.36 1015.69 1014.93 1014.96 1015.16 1015.45 1015.79 1016.19 1016.53 1016.80 1016.97 1017.14 1016.97 1016.62 1016.90 1017.98 1017.91 1018.34 1018.24
1028.01 1027.93 1028.06 1028.52 1029.09 1029.59 1029.36 1027.82 1027.12 1027.26 1027.36 1027.30 1027.27 1027.34 1027.24 1026.90 1026.55 1026.11 1025.64 1025.07 1024.44 1023.71 1022.94 1022.18 1021.36 1020.55 1019.65 1018.73 1017.84 1016.84 1015.68 1015.14 1014.64 1014.57 1014.81 1015.15 1015.50 1015.83 1016.12 1016.35 1016.43 1016.63 1016.83 1016.85 1017.18 1017.25 1017.43 1017.54 1017.89
1028.42 1028.41 1028.57 1029.13 1029.64 1029.77 1029.82 1028.13 1027.45 1027.59 1027.70 1027.69 1027.63 1027.69 1027.73 1027.48 1027.02 1026.54 1025.91 1025.28 1024.67 1024.07 1023.30 1022.49 1021.74 1020.98 1020.09 1019.05 1017.98 1017.13 1015.87 1014.95 1014.86 1014.98 1015.22 1015.39 1015.82 1016.09 1016.25 1016.18 1016.33 1016.32 1016.43 1016.60 1016.64 1016.79 1016.83 1016.75 1016.89
Wind_Speed
11 9 1 5 4 5 3 5 2 4 3 3 3 5 4 3 3 4 1 4 15 17 17 16 19 19 17 16 18 17 16 16 16 16 14 15 14 13 13 13 12 9 11 13 16 20 22 22 20
6 4 5 3 5 2 6 4 5 4 4 4 4 2 5 2 2 4 4 9 19 15 14 14 18 19 16 16 18 17 15 15 15 15 12 14 12 12 13 14 10 14 9 13 15 19 21 21 20
3 3 5 4 4 9 6 6 6 3 4 3 4 4 2 2 3 7 2 17 17 15 13 13 18 19 19 17 16 16 16 13 14 14 12 12 11 11 14 14 12 12 11 12 15 19 21 19 20
3 5 5 4 8 4 5 6 3 3 3 3 4 5 2 1 7 6 12 16 14 14 12 15 18 19 19 18 16 15 15 14 13 13 13 11 10 11 14 14 13 11 12 11 14 17 21 20 20
4 3 3 2 4 2 4 6 5 4 4 1 2 4 3 4 4 12 14 14 14 11 12 12 18 18 18 18 14 15 15 15 13 13 11 10 11 12 15 14 12 10 12 12 11 16 20 20 20
4 3 3 4 2 2 4 6 3 2 1 2 3 6 3 3 5 13 14 14 13 11 12 11 14 13 16 16 14 15 12 15 13 11 12 12 12 14 16 15 14 13 12 10 9 13 20 19 19
5 4 4 3 3 3 4 5 4 5 3 5 7 5 3 3 8 12 13 11 12 9 8 10 11 11 12 14 15 12 11 11 11 12 11 11 9 12 13 13 13 14 12 10 9 14 19 19 19
5 4 2 3 3 1 3 7 2 1 4 1 1 5 5 6 12 10 10 10 11 9 7 10 11 9 8 8 9 10 11 9 9 11 10 10 9 11 10 11 11 14 12 9 9 12 16 18 19
1 4 2 2 1 2 5 6 5 3 2 3 4 2 1 15 15 13 10 8 9 9 9 9 10 7 7 6 6 9 13 10 11 9 10 8 4 6 6 9 10 11 12 10 11 10 13 16 15
5 2 5 4 3 3 7 5 6 5 4 4 3 6 7 16 17 19 12 7 8 11 11 9 9 6 7 6 4 5 6 5 5 6 6 4 5 5 6 8 10 10 10 10 13 14 13 9 5
3 2 4 5 7 6 5 7 5 7 5 3 5 4 4 14 14 12 16 11 9 8 8 10 10 7 7 5 3 3 3 3 3 6 5 5 4 4 4 4 3 4 7 4 5 6 4 5 4
2 4 3 5 8 7 6 7 4 6 4 9 7 6 4 8 12 12 10 15 10 7 9 10 10 10 8 4 4 5 5 3 4 4 6 6 4 4 3 4 4 4 3 5 4 3 5 5 4
4 5 6 7 7 5 5 5 2 5 6 7 7 8 6 5 3 4 4 6 12 10 8 10 11 11 9 7 4 5 5 5 5 5 4 5 7 4 3 4 4 4 4 4 4 4 4 4 4
4 4 8 6 6 5 3 2 3 6 8 10 8 5 4 4 2 3 5 7 5 7 9 10 11 11 10 9 9 7 6 6 6 6 6 6 7 5 4 4 4 4 3 3 4 4 4 4 4
2 4 3 9 9 4 3 4 5 7 7 7 7 4 3 1 5 5 4 7 11 9 9 12 12 12 11 10 10 9 8 7 6 7 8 8 9 8 6 4 4 4 4 4 3 3 3 3 2
5 4 4 4 13 7 5 3 3 9 8 7 7 6 6 4 4 5 7 7 7 11 13 12 11 13 13 11 9 8 8 7 7 7 7 10 10 8 6 5 4 4 4 4 4 3 3 2 2
8 3 5 7 6 5 7 2 9 12 7 7 7 7 7 9 12 12 10 8 9 10 12 13 13 13 13 12 9 10 11 9 8 7 7 9 10 10 8 6 4 5 4 4 4 2 3 3 2
4 5 4 3 7 6 6 8 12 17 10 10 11 13 13 12 14 15 17 18 7 6 7 12 11 11 13 10 9 9 9 9 8 7 8 11 9 11 9 6 6 6 5 4 4 4 2 2 3
2 1 3 4 2 6 7 8 10 13 19 17 15 15 15 14 12 14 16 16 18 15 8 6 8 13 9 10 9 9 11 10 9 8 12 12 11 12 11 7 8 8 8 9 8 4 4 2 2
3 2 5 5 4 3 6 5 7 10 10 12 13 14 15 17 18 17 17 16 16 14 14 15 8 7 12 10 7 7 7 8 9 8 11 13 13 12 12 12 9 10 8 10 9 7 3 3 5
3 3 3 3 6 3 3 3 4 3 7 9 12 9 11 14 17 17 17 15 14 15 15 14 14 8 8 11 6 3 4 2 4 5 7 9 12 13 14 14 11 11 10 9 10 9 9 5 5
2 1 3 5 4 2 3 2 3 5 5 13 14 14 14 15 14 14 17 17 15 13 12 13 15 14 6 8 8 11 9 5 5 9 7 8 11 13 14 14 13 13 10 10 10 10 9 6 7
5 6 3 2 2 3 6 5 2 6 9 17 15 14 13 13 14 15 16 16 16 13 11 11 13 14 13 9 10 9 10 6 3 4 8 10 11 12 12 13 13 12 10 11 11 10 10 9 6
6 2 5 4 2 5 4 3 4 5 7 10 11 12 15 15 14 14 14 15 14 14 12 12 12 12 13 12 10 9 10 8 5 7 8 8 6 7 9 11 10 11 11 12 11 12 13 11 11
8 6 4 6 7 5 2 3 2 2 2 5 12 14 13 13 16 17 17 18 15 16 15 13 13 13 11 12 11 11 11 9 10 9 8 8 7 7 11 9 11 10 11 12 11 12 13 13 11
4 3 4 3 3 5 4 2 3 2 3 6 6 8 11 16 16 16 18 17 15 15 15 13 14 14 12 11 11 10 12 7 7 8 8 7 8 9 10 11 10 11 12 12 12 10 11 12 11
7 5 3 4 3 2 3 2 3 3 4 11 13 14 17 18 16 16 17 16 16 16 14 14 13 15 12 12 10 10 10 10 8 10 5 5 5 5 7 10 12 13 13 14 13 11 12 12 13
3 4 4 4 4 4 4 4 3 8 12 11 13 15 15 15 14 14 14 15 14 13 12 13 12 13 12 12 10 10 11 12 10 7 9 8 8 7 7 10 12 12 13 11 11 11 12 13 11
5 5 3 1 1 1 4 5 2 5 6 9 10 10 12 13 13 12 12 13 13 13 12 12 12 13 13 13 11 12 11 11 11 8 7 6 6 6 8 10 10 11 11 11 11 12 11 11 11
2 2 1 4 6 1 2 6 2 4 4 5 8 10 9 8 9 10 12 13 13 13 13 13 13 13 13 12 11 12 11 7 7 8 8 8 7 6 5 5 8 10 10 10 10 11 11 14 14
Wind_Direction
327 316 20 34 45 60 240 256 277 302 342 286 107 123 172 92 170 207 94 154 134 143 145 147 147 146 144 150 144 133 135 137 136 133 137 140 129 123 125 121 114 105 92 106 107 110 103 99 101
321 329 44 74 110 175 250 249 229 220 195 183 71 40 40 58 78 103 116 149 143 139 143 145 145 143 146 137 147 145 144 142 139 141 145 128 137 128 131 127 133 126 114 117 118 114 109 107 107
307 349 95 136 167 212 205 215 214 192 182 182 108 63 91 357 27 153 154 150 137 140 142 143 143 148 136 153 141 146 148 142 141 145 143 136 137 128 134 125 120 124 126 121 125 123 118 117 111
19 13 27 122 232 291 209 228 243 343 39 59 125 71 46 336 162 177 148 145 137 136 138 146 146 139 149 145 155 151 143 145 146 149 151 139 145 130 132 121 119 123 130 125 123 131 124 122 116
39 52 90 230 252 245 263 299 332 318 324 19 186 170 86 25 98 134 147 145 138 129 134 148 140 145 153 150 150 150 167 147 148 153 147 141 128 136 130 123 119 107 111 119 120 138 130 125 120
56 100 84 225 230 243 265 263 280 267 279 161 74 123 130 119 113 147 147 145 135 132 143 152 139 149 151 156 156 164 151 149 151 152 139 129 120 133 130 126 120 113 115 121 129 143 133 128 124
116 96 189 206 254 230 214 320 244 251 240 257 148 126 129 152 139 153 149 138 132 131 133 139 148 153 162 159 164 159 125 125 138 134 130 117 114 133 128 123 126 125 111 106 112 140 136 132 128
104 93 131 236 222 239 327 319 39 195 277 57 94 189 194 177 140 131 147 127 132 134 128 142 151 157 164 163 160 144 140 124 137 121 112 105 108 123 115 112 122 129 113 116 126 135 140 133 133
95 64 188 256 229 7 354 5 325 269 206 25 14 20 309 136 134 132 142 125 142 146 146 146 152 154 151 159 165 152 125 125 111 100 101 94 95 97 94 100 108 111 109 117 114 131 126 124 127
72 105 217 6 6 355 315 20 318 7 28 6 7 20 99 143 153 146 150 149 162 156 159 157 152 146 148 165 151 136 128 126 123 120 113 108 116 117 102 100 93 101 107 119 113 109 106 104 124
26 158 337 358 346 332 336 8 328 348 28 27 289 155 147 156 160 167 146 160 170 158 155 160 161 151 157 145 135 125 119 123 123 132 129 122 113 114 119 114 98 94 82 76 95 100 91 109 119
53 33 61 310 332 345 345 317 14 52 321 303 283 156 128 155 166 170 157 154 163 168 163 161 168 166 166 136 147 141 139 135 133 142 137 132 136 135 141 123 129 116 115 109 113 112 118 117 122
46 334 328 316 302 296 310 1 354 2 359 22 56 65 94 88 124 104 159 173 147 169 174 172 174 175 170 161 150 146 155 156 150 145 142 145 158 149 139 137 136 135 131 126 129 131 130 136 146
312 307 309 328 309 333 304 343 24 23 343 22 51 57 84 105 142 168 168 171 166 170 185 182 183 182 176 178 172 173 173 165 159 157 161 154 168 162 149 146 145 145 149 144 145 149 148 151 149
315 12 34 9 332 26 296 39 69 328 13 33 20 25 337 22 172 217 241 210 170 211 209 194 188 185 181 186 182 176 180 169 176 170 167 162 173 173 162 161 165 160 148 134 116 105 100 117 121
38 38 34 9 15 329 45 290 32 354 3 15 32 10 355 333 313 268 236 230 221 192 197 206 197 192 187 190 188 190 185 178 184 173 176 172 173 175 164 168 175 160 154 153 149 154 127 122 187
14 52 8 336 42 330 39 330 358 340 335 346 6 11 7 1 12 357 343 260 227 209 206 199 199 198 196 192 190 199 196 185 185 171 176 180 176 172 170 172 167 153 155 166 162 143 140 169 158
338 359 335 337 327 13 17 21 20 15 41 25 27 29 29 28 8 359 3 4 282 243 238 207 188 203 205 202 195 200 198 195 182 176 180 180 185 177 170 164 158 164 163 170 179 152 129 173 151
150 114 320 281 309 29 22 71 36 31 45 38 31 23 14 8 354 2 7 10 19 13 333 306 226 190 200 204 202 202 201 192 187 183 184 187 188 184 177 178 177 182 185 191 183 157 161 127 146
25 54 341 291 298 34 18 90 95 58 54 48 30 17 7 354 0 1 3 8 13 5 4 1 316 236 202 195 206 212 203 218 206 185 186 192 188 186 180 183 186 185 190 196 184 166 145 132 176
9 82 337 275 328 64 15 73 46 106 75 43 38 20 7 360 351 351 354 1 359 1 357 351 346 322 231 225 199 170 136 164 176 180 193 199 190 192 191 189 184 186 190 199 191 189 174 172 187
338 346 282 291 13 148 29 216 25 343 2 18 15 11 360 351 350 349 348 350 355 351 349 348 342 340 303 218 211 207 209 192 218 192 194 211 206 199 198 195 190 185 192 197 199 189 195 159 185
279 334 318 318 88 46 360 72 264 11 340 356 358 359 355 350 347 345 345 342 341 344 349 343 336 338 340 315 223 216 222 213 176 187 182 211 205 202 206 203 193 192 195 202 195 193 196 198 179
301 347 31 37 56 47 300 103 344 8 334 332 342 351 353 351 349 346 343 338 338 341 341 341 337 332 332 335 314 227 220 203 177 187 192 196 196 198 206 211 214 204 200 202 201 197 203 202 206
15 37 352 1 13 203 316 48 271 10 338 328 331 346 356 356 356 351 349 344 339 338 337 336 336 328 327 326 325 314 232 225 204 196 202 188 192 199 206 200 207 212 211 215 208 204 206 206 208
330 15 134 198 343 286 308 286 181 109 51 316 340 347 356 0 357 349 345 345 338 335 333 328 332 324 324 320 314 310 301 233 228 216 210 211 205 208 206 205 208 214 225 223 218 215 215 211 213
316 29 291 110 17 312 271 261 240 270 347 357 355 359 1 357 351 345 344 344 342 339 334 330 330 323 323 315 304 294 290 260 227 229 212 218 211 211 205 204 207 217 224 227 221 224 224 213 214
122 295 17 4 23 321 302 277 251 336 340 343 355 360 351 345 343 344 342 343 339 338 338 336 336 328 322 320 312 296 287 275 234 217 216 212 220 217 210 217 224 225 231 226 220 221 228 226 219
353 355 347 355 144 247 308 272 234 299 333 324 339 342 335 334 340 340 345 346 343 340 345 345 343 342 338 331 325 313 270 256 245 214 200 201 209 216 225 223 221 223 225 229 231 232 227 231 229
289 281 296 114 292 266 176 274 143 280 304 303 318 327 319 305 321 336 345 350 349 348 350 354 353 351 344 340 344 347 354 46 54 62 68 62 50 17 303 248 233 229 226 230 232 235 231 230 234